Regional Weather Roundup
Issued by NWS

Home | Current Version | Previous Version | Graphics & Text | Print | Product List | Glossary On
Versions: 1 2 3 4 5 6 7 8 9 10 11 12 13 14 15 16 17 18 19 20 21 22 23 24 25 26 27 28 29 30 31 32 33 34 35 36 37 38 39 40 41 42 43 44 45 46 47 48 49 50
000
ASUS44 KMEG 051910
RWRTN
TENNESSEE HOURLY STATE WEATHER ROUNDUP
NATIONAL WEATHER SERVICE MEMPHIS TN
100 PM CST MON DEC 05 2016

TNZ002-004-019-021-049-052-054-088>092-052000-
WEST TENNESSEE

CITY           SKY/WX    TMP DP  RH WIND       PRES   REMARKS
MEMPHIS INTL   CLOUDY    46  41  82 E13       29.89F
NWS MEMPHIS      N/A     45 N/A N/A MISG        N/A
JACKSON        CLOUDY    46  42  86 E9        29.94F
DYERSBURG      CLOUDY   N/A N/A N/A SE8       29.94F
UNION CITY     PTSUNNY   41  37  87 E7        29.95F
PARIS          CLOUDY    39  36  87 E10       29.97F WCI  32
HUNTINGDON     CLOUDY    43  39  87 E9        29.96F
LEXINGTON      CLOUDY    45  41  87 NE6       29.95F
$$

TNZ008-025-027-028-033-062-065-066-052000-
NORTH MIDDLE TENNESSEE

CITY           SKY/WX    TMP DP  RH WIND       PRES   REMARKS
NASHVILLE      CLOUDY    46  42  86 NE9       29.98F
PORTLAND       CLOUDY    43  39  87 NE6       30.00F
CLARKSVILLE    CLOUDY    42  37  82 E8        30.01F
SMYRNA         CLOUDY    45  44  97 N9        29.98F
CROSSVILLE     CLOUDY    45  44  97 E6        29.97F FOG
$$

TNZ061-075-076-078-094-096-097-052000-
SOUTH MIDDLE TENNESSEE

CITY           SKY/WX    TMP DP  RH WIND       PRES   REMARKS
FAYETTEVILLE   CLOUDY    48  48 100 NE5       29.95S
TULLAHOMA      CLOUDY    46  46 100 E5        29.95F
WINCHESTER     PTSUNNY   48  48 100 NE3       29.94F
MCMINNVILLE    CLOUDY    46  46 100 NE7       29.94F
COLUMBIA       CLOUDY   N/A N/A N/A E7        29.94F
SHELBYVILLE    CLOUDY    48  46  93 NE5       29.97F
$$

TNZ017-018-042-046-047-052000-
NORTHEAST TENNESSEE

CITY           SKY/WX    TMP DP  RH WIND       PRES   REMARKS
TRI CITIES     PTSUNNY   53  40  61 VRB3      29.99F
ELIZABETHTON   MOSUNNY   52  43  71 E3        29.99F
$$

TNZ012-013-036-069-073-074-052000-
CENTRAL EAST TENNESSEE

CITY           SKY/WX    TMP DP  RH WIND       PRES   REMARKS
KNOXVILLE      CLOUDY    52  46  80 NE10      29.97F
OAK RIDGE      CLOUDY    52  44  74 NE5       30.00F
DOWNTOWN KNOXV CLOUDY    54  48  82 CALM      29.99F
GATLINBURG     CLOUDY    50  46  87 NE3       29.99S
MORRISTOWN     CLOUDY    52  46  82 E5        29.99S
JACKSBORO      CLOUDY    50  43  76 CALM      30.03S
$$

TNZ083-085-099-052000-
SOUTHEAST TENNESSEE

CITY           SKY/WX    TMP DP  RH WIND       PRES   REMARKS
CHATTANOOGA    RAIN      51  47  86 NE6       29.98F FOG
$$

SKY/WX REPORTED AS FAIR MEANS FEW OR NO CLOUDS BELOW
12 THOUSAND FEET.





USA.gov is the U.S. government's official web portal to all federal, state and local government web resources and services.